DW7380 Weather Reports


Display with metric or nautical units.
time (UTC)temp
F
wind
direction
speed
MPH
gust
MPH
rain 1hr
in
rain 24hr
in
rain mn
in
humidity
%
barometer
mb
20190121173032 1 242 2.0 5.0 0.00 0.00 0.00 86 1015.4
20190121172532 1 263 4.0 7.0 0.00 0.00 0.00 86 1015.4
20190121172032 1 227 1.0 4.0 0.00 0.00 0.00 86 1015.3
20190121171532 1 228 1.0 4.0 0.00 0.00 0.00 86 1015.3
20190121171032 1 228 1.0 5.0 0.00 0.00 0.00 86 1015.3
20190121170532 1 222 3.0 6.0 0.00 0.00 0.00 86 1015.3
20190121170032 1 235 5.0 8.0 0.00 0.00 0.00 86 1015.2
20190121165532 1 243 4.0 9.0 0.00 0.00 0.00 86 1015.1
20190121165032 1 222 4.0 10.0 0.00 0.00 0.00 86 1015.1
20190121164532 1 241 3.0 8.0 0.00 0.00 0.00 86 1015.0
20190121164032 1 235 5.0 8.0 0.00 0.00 0.00 86 1014.9
20190121163533 1 243 1.0 10.0 0.00 0.00 0.00 86 1015.0
20190121163032 1 227 3.0 5.0 0.00 0.00 0.00 86 1014.9
20190121162532 1 200 6.0 7.0 0.00 0.00 0.00 86 1014.9
20190121162033 1 236 5.0 8.0 0.00 0.00 0.00 86 1014.9
20190121161532 1 233 4.0 7.0 0.00 0.00 0.00 86 1014.9
20190121161032 1 234 6.0 7.0 0.00 0.00 0.00 86 1014.8
20190121160532 1 211 5.0 7.0 0.00 0.00 0.00 86 1014.7
20190121160032 1 232 5.0 8.0 0.00 0.00 0.00 86 1014.7
20190121155532 1 235 3.0 9.0 0.00 0.00 0.00 86 1014.8
20190121155032 1 237 4.0 10.0 0.00 0.00 0.00 86 1014.8
20190121154532 1 235 4.0 6.0 0.00 0.00 0.00 86 1014.7
20190121154032 1 238 5.0 9.0 0.00 0.00 0.00 86 1014.7
20190121153532 1 223 5.0 7.0 0.00 0.00 0.00 86 1014.7
20190121153032 1 237 2.0 8.0 0.00 0.00 0.00 86 1014.8
20190121152532 1 204 6.0 8.0 0.00 0.00 0.00 86 1014.8
20190121152033 1 208 5.0 8.0 0.00 0.00 0.00 86 1014.7
20190121151532 1 214 5.0 9.0 0.00 0.00 0.00 86 1014.7
20190121151033 1 230 1.0 9.0 0.00 0.00 0.00 86 1014.7
20190121150532 1 247 5.0 9.0 0.00 0.00 0.00 86 1014.6
20190121150033 1 258 4.0 7.0 0.00 0.00 0.00 86 1014.5
20190121145532 1 241 6.0 9.0 0.00 0.00 0.00 86 1014.4
20190121145032 1 206 3.0 8.0 0.00 0.00 0.00 86 1014.4
20190121144532 1 237 3.0 6.0 0.00 0.00 0.00 86 1014.4
20190121144032 1 254 1.0 7.0 0.00 0.00 0.00 86 1014.3
20190121143532 1 220 2.0 5.0 0.00 0.00 0.00 86 1014.2
20190121143032 1 253 1.0 4.0 0.00 0.00 0.00 86 1014.2
20190121142532 1 258 1.0 7.0 0.00 0.00 0.00 86 1014.2
20190121142033 1 233 4.0 8.0 0.00 0.00 0.00 86 1014.1
20190121141532 1 244 2.0 7.0 0.00 0.00 0.00 86 1014.1
20190121141032 0 245 0.0 7.0 0.00 0.00 0.00 86 1014.0
20190121140532 0 245 3.0 8.0 0.00 0.00 0.00 86 1014.1
20190121140032 0 228 6.0 7.0 0.00 0.00 0.00 86 1013.9
20190121135532 0 244 3.0 9.0 0.00 0.00 0.00 86 1013.9
20190121135032 0 231 8.0 9.0 0.00 0.00 0.00 85 1013.8
20190121134532 0 247 4.0 10.0 0.00 0.00 0.00 85 1013.6
20190121134032 0 224 5.0 10.0 0.00 0.00 0.00 85 1013.6
20190121133532 0 240 3.0 8.0 0.00 0.00 0.00 85 1013.5
20190121133032 1 241 5.0 9.0 0.00 0.00 0.00 85 1013.4
20190121132532 1 233 3.0 4.0 0.00 0.00 0.00 85 1013.3
20190121132033 1 210 3.0 5.0 0.00 0.00 0.00 85 1013.2
20190121131532 1 171 3.0 5.0 0.00 0.00 0.00 84 1013.1
20190121131032 1 171 5.0 6.0 0.00 0.00 0.00 84 1013.2
20190121130532 1 262 1.0 8.0 0.00 0.00 0.00 84 1013.2
20190121130032 2 184 5.0 13.0 0.00 0.00 0.00 84 1013.2
20190121125532 2 200 1.0 8.0 0.00 0.00 0.00 84 1013.2
20190121125032 3 242 2.0 9.0 0.00 0.00 0.00 84 1013.2
20190121124532 3 228 3.0 6.0 0.00 0.00 0.00 84 1013.2
20190121124032 4 185 5.0 5.0 0.00 0.00 0.00 85 1013.1
20190121123532 4 251 3.0 8.0 0.00 0.00 0.00 85 1013.1
20190121123032 4 218 3.0 7.0 0.00 0.00 0.00 85 1013.1
20190121122532 4 233 4.0 8.0 0.00 0.00 0.00 85 1013.1
20190121122032 4 250 2.0 5.0 0.00 0.00 0.00 85 1013.0
20190121121532 4 229 3.0 10.0 0.00 0.00 0.00 85 1013.1
20190121121032 4 263 3.0 7.0 0.00 0.00 0.00 86 1013.2
20190121120532 4 216 3.0 10.0 0.00 0.00 0.00 86 1013.3
20190121120032 4 243 5.0 8.0 0.00 0.00 0.00 86 1013.3
20190121115532 4 226 2.0 4.0 0.00 0.00 0.00 86 1013.1
20190121115032 4 217 3.0 4.0 0.00 0.00 0.00 86 1013.2
20190121114532 4 217 0.0 5.0 0.00 0.00 0.00 86 1013.2
20190121114032 4 217 4.0 5.0 0.00 0.00 0.00 86 1013.3
20190121113532 3 234 6.0 8.0 0.00 0.00 0.00 86 1013.4
20190121113032 4 234 1.0 5.0 0.00 0.00 0.00 86 1013.4
20190121112532 3 234 2.0 3.0 0.00 0.00 0.00 86 1013.5
20190121112032 3 234 1.0 5.0 0.00 0.00 0.00 85 1013.4
20190121111532 3 239 1.0 4.0 0.00 0.00 0.00 86 1013.5
20190121111032 3 239 0.0 2.0 0.00 0.00 0.00 86 1013.4
20190121110532 3 239 2.0 6.0 0.00 0.00 0.00 86 1013.5
20190121110032 3 235 7.0 7.0 0.00 0.00 0.00 86 1013.6
20190121105532 3 231 3.0 6.0 0.00 0.00 0.00 86 1013.7
20190121105033 3 216 3.0 7.0 0.00 0.00 0.00 86 1013.7
20190121104532 3 230 5.0 7.0 0.00 0.00 0.00 86 1013.7
20190121104032 3 215 3.0 8.0 0.00 0.00 0.00 86 1013.6
20190121103532 3 238 2.0 5.0 0.00 0.00 0.00 86 1013.7
20190121103032 3 193 4.0 4.0 0.00 0.00 0.00 86 1013.6
20190121102532 2 235 3.0 4.0 0.00 0.00 0.00 86 1013.5
20190121102032 2 221 3.0 5.0 0.00 0.00 0.00 86 1013.5
20190121101532 2 240 2.0 6.0 0.00 0.00 0.00 86 1013.4
20190121101032 2 253 3.0 6.0 0.00 0.00 0.00 86 1013.4
20190121100532 2 260 4.0 7.0 0.00 0.00 0.00 86 1013.3
20190121100032 2 238 2.0 6.0 0.00 0.00 0.00 86 1013.2
20190121095532 2 240 2.0 4.0 0.00 0.00 0.00 86 1013.1
20190121095032 2 255 3.0 5.0 0.00 0.00 0.00 86 1013.2
20190121094532 2 227 2.0 4.0 0.00 0.00 0.00 87 1013.0
20190121094032 1 225 1.0 7.0 0.00 0.00 0.00 87 1013.0
20190121093532 1 285 7.0 8.0 0.00 0.00 0.00 86 1012.9
20190121093032 1 239 3.0 8.0 0.00 0.00 0.00 86 1012.9
20190121092532 0 256 5.0 9.0 0.00 0.00 0.00 86 1012.7
20190121092032 0 257 7.0 11.0 0.00 0.00 0.00 86 1012.7
20190121091532 0 247 4.0 10.0 0.00 0.00 0.00 86 1012.7
20190121091032 -1 257 9.0 10.0 0.00 0.00 0.00 85 1012.6
20190121090532 -1 247 3.0 7.0 0.00 0.00 0.00 85 1012.4
20190121090032 -1 260 7.0 11.0 0.00 0.00 0.00 85 1012.4
20190121085532 -1 252 10.0 10.0 0.00 0.00 0.00 85 1012.4
20190121085032 -1 254 1.0 11.0 0.00 0.00 0.00 85 1012.5
20190121084532 -1 253 4.0 12.0 0.00 0.00 0.00 85 1012.4
20190121084032 -2 263 7.0 7.0 0.00 0.00 0.00 85 1012.4
20190121083532 -2 232 4.0 11.0 0.00 0.00 0.00 85 1012.3
20190121083032 -2 248 7.0 9.0 0.00 0.00 0.00 85 1012.4
20190121082532 -2 263 0.0 8.0 0.00 0.00 0.00 85 1012.1
20190121082032 -2 18 5.0 11.0 0.00 0.00 0.00 85 1012.1
20190121081532 -2 293 7.0 9.0 0.00 0.00 0.00 85 1012.0
20190121081032 -2 272 6.0 12.0 0.00 0.00 0.00 85 1012.2
20190121080532 -1 280 12.0 13.0 0.00 0.00 0.00 85 1012.1
20190121080032 -1 276 11.0 12.0 0.00 0.00 0.00 85 1012.1
20190121075532 -1 233 4.0 7.0 0.00 0.00 0.00 85 1011.9
20190121075032 -1 260 3.0 9.0 0.00 0.00 0.00 85 1011.9
20190121074532 -1 216 4.0 8.0 0.00 0.00 0.00 86 1011.8
20190121074032 -1 252 4.0 8.0 0.00 0.00 0.00 86 1011.7
20190121073532 -1 244 8.0 10.0 0.00 0.00 0.00 86 1011.7
20190121073032 -1 250 8.0 13.0 0.00 0.01 0.00 86 1011.6
20190121072532 -1 264 4.0 13.0 0.00 0.01 0.00 86 1011.5
20190121072032 -1 285 4.0 10.0 0.00 0.01 0.00 86 1011.4
20190121071532 0 256 5.0 11.0 0.00 0.02 0.00 87 1011.3
20190121071032 0 243 4.0 9.0 0.00 0.02 0.00 87 1011.3
20190121070532 0 233 2.0 8.0 0.00 0.03 0.00 87 1011.2
20190121070033 0 248 7.0 8.0 0.00 0.03 0.00 87 1011.2
20190121065533 0 241 5.0 8.0 0.00 0.03 0.00 87 1011.1
20190121065032 0 272 1.0 8.0 0.00 0.03 0.00 87 1011.0
20190121064532 0 239 2.0 9.0 0.00 0.03 0.00 87 1010.9
20190121064032 0 239 3.0 6.0 0.00 0.03 0.00 87 1010.8
20190121063532 0 224 2.0 7.0 0.00 0.03 0.00 87 1010.8
20190121063032 0 263 6.0 7.0 0.00 0.03 0.00 88 1010.8
20190121062532 0 241 4.0 7.0 0.00 0.03 0.00 88 1010.9
20190121062032 0 272 2.0 9.0 0.00 0.03 0.00 87 1010.8
20190121061532 0 251 4.0 8.0 0.00 0.03 0.00 88 1010.7
20190121061033 0 244 2.0 9.0 0.00 0.03 0.00 88 1010.8
20190121060532 0 239 3.0 8.0 0.00 0.04 0.00 88 1010.7
20190121060032 0 237 1.0 8.0 0.00 0.04 0.00 88 1010.7
20190121055532 0 260 4.0 8.0 0.00 0.04 0.00 88 1010.7
20190121055032 0 270 2.0 7.0 0.00 0.04 0.00 88 1010.6
20190121054532 0 268 4.0 6.0 0.00 0.04 0.00 88 1010.5
20190121054032 -1 280 1.0 7.0 0.00 0.04 0.00 88 1010.4
20190121053533 -1 237 4.0 8.0 0.00 0.04 0.00 87 1010.4
20190121053032 -1 253 1.0 9.0 0.00 0.04 0.00 87 1010.3
20190121052532 -1 241 6.0 8.0 0.00 0.04 0.00 87 1010.3
20190121052032 -1 225 2.0 8.0 0.00 0.04 0.00 87 1010.3
20190121051532 -1 290 2.0 10.0 0.00 0.04 0.00 87 1010.3
20190121051032 -1 211 6.0 8.0 0.00 0.04 0.00 87 1010.2
20190121050532 -1 272 2.0 8.0 0.00 0.04 0.00 87 1010.1
20190121050032 -1 233 4.0 6.0 0.00 0.04 0.00 87 1010.0
20190121045532 -1 280 2.0 9.0 0.00 0.04 0.00 86 1010.0
20190121045032 -1 243 7.0 7.0 0.00 0.04 0.00 86 1009.9
20190121044532 -1 245 3.0 7.0 0.00 0.04 0.00 86 1009.8
20190121044032 -1 359 5.0 10.0 0.00 0.04 0.00 85 1009.9
20190121043532 -1 253 7.0 13.0 0.00 0.04 0.00 85 1009.9
20190121043032 -1 359 6.0 10.0 0.00 0.04 0.00 85 1009.9
20190121042532 -1 280 3.0 10.0 0.00 0.04 0.00 85 1009.9
20190121042032 -1 239 3.0 11.0 0.00 0.04 0.00 85 1009.8
20190121041533 -1 268 7.0 9.0 0.00 0.04 0.00 85 1009.9
20190121041032 0 282 6.0 6.0 0.00 0.04 0.00 85 1009.9
20190121040532 0 243 4.0 9.0 0.00 0.04 0.00 85 1009.7
20190121040032 0 229 4.0 9.0 0.00 0.04 0.00 85 1009.8
20190121035532 0 280 6.0 8.0 0.00 0.04 0.00 86 1009.7
20190121035032 0 253 4.0 8.0 0.00 0.04 0.00 85 1009.6
20190121034532 0 265 2.0 5.0 0.00 0.04 0.00 85 1009.5
20190121034032 1 253 1.0 6.0 0.00 0.04 0.00 85 1009.5
20190121033532 1 293 2.0 9.0 0.00 0.04 0.00 86 1009.4
20190121033032 1 221 2.0 9.0 0.00 0.04 0.00 86 1009.3
20190121032532 1 229 6.0 7.0 0.00 0.04 0.00 86 1009.3
20190121032032 1 293 2.0 6.0 0.00 0.04 0.00 86 1009.4
20190121031532 1 254 4.0 10.0 0.00 0.05 0.00 86 1009.3
20190121031032 1 224 5.0 8.0 0.00 0.05 0.00 86 1009.3
20190121030532 2 247 2.0 7.0 0.00 0.05 0.00 86 1009.2
20190121030032 2 237 5.0 7.0 0.00 0.05 0.00 86 1009.1
20190121025532 2 228 3.0 5.0 0.00 0.05 0.00 86 1009.0
20190121025032 2 267 3.0 7.0 0.00 0.05 0.00 86 1009.0
20190121024532 2 264 4.0 6.0 0.00 0.05 0.00 86 1009.2
20190121024032 2 241 4.0 7.0 0.00 0.05 0.00 86 1009.1
20190121023532 2 281 2.0 10.0 0.00 0.05 0.00 86 1009.1
20190121023032 2 282 3.0 9.0 0.00 0.05 0.00 86 1009.1
20190121022532 3 256 2.0 6.0 0.00 0.05 0.00 86 1009.0
20190121022032 3 260 6.0 8.0 0.00 0.05 0.00 87 1009.0
20190121021532 3 280 2.0 6.0 0.00 0.05 0.00 87 1008.9
20190121021032 3 262 3.0 8.0 0.00 0.05 0.00 87 1008.9
20190121020532 3 256 4.0 8.0 0.00 0.05 0.00 87 1008.9
20190121020032 3 246 5.0 6.0 0.00 0.05 0.00 87 1008.9
20190121015532 3 230 4.0 7.0 0.00 0.05 0.00 87 1009.0
20190121015032 3 228 5.0 5.0 0.00 0.05 0.00 87 1009.0
20190121014532 3 272 4.0 7.0 0.00 0.05 0.00 87 1008.9
20190121014032 3 228 5.0 7.0 0.00 0.05 0.00 87 1008.9
20190121013532 3 259 2.0 9.0 0.00 0.05 0.00 87 1008.9
20190121013032 3 226 6.0 7.0 0.00 0.06 0.00 87 1008.8
20190121012532 4 255 2.0 7.0 0.00 0.06 0.00 86 1008.9
20190121012032 4 278 3.0 9.0 0.00 0.06 0.00 87 1008.9
20190121011532 4 250 2.0 8.0 0.00 0.07 0.00 87 1008.9
20190121011032 4 263 3.0 5.0 0.00 0.07 0.00 86 1008.8
20190121010532 4 266 2.0 9.0 0.00 0.07 0.00 86 1008.9
20190121010032 4 235 4.0 8.0 0.00 0.08 0.00 86 1008.8
20190121005532 4 242 2.0 8.0 0.00 0.08 0.00 86 1008.8
20190121005032 5 273 3.0 7.0 0.00 0.08 0.00 86 1008.8
20190121004533 5 245 3.0 6.0 0.00 0.09 0.00 86 1008.7
20190121004032 5 239 6.0 7.0 0.00 0.09 0.00 86 1008.7
20190121003532 5 239 5.0 5.0 0.00 0.09 0.00 86 1008.6
20190121003033 5 251 3.0 8.0 0.00 0.10 0.00 86 1008.6
20190121002532 5 237 4.0 6.0 0.00 0.10 0.00 86 1008.5
20190121002032 5 241 2.0 5.0 0.00 0.10 0.00 86 1008.4
20190121001532 5 228 4.0 8.0 0.00 0.11 0.00 86 1008.4
20190121001032 5 227 3.0 7.0 0.00 0.11 0.00 86 1008.3
20190121000532 5 218 7.0 8.0 0.00 0.11 0.00 86 1008.4
20190121000032 6 201 2.0 7.0 0.00 0.12 0.00 86 1008.4
20190120235532 6 210 6.0 9.0 0.00 0.12 0.00 86 1008.4
20190120235032 6 239 2.0 6.0 0.00 0.13 0.00 86 1008.3
20190120234532 6 241 3.0 8.0 0.00 0.13 0.00 86 1008.3
20190120234032 6 259 2.0 5.0 0.00 0.13 0.00 86 1008.3
20190120233532 6 237 1.0 8.0 0.00 0.14 0.00 86 1008.3
20190120233032 6 274 4.0 9.0 0.00 0.14 0.00 86 1008.4
20190120232532 6 243 5.0 7.0 0.00 0.14 0.00 86 1008.3
20190120232032 6 237 6.0 6.0 0.00 0.14 0.00 86 1008.3
20190120231532 6 264 1.0 6.0 0.00 0.15 0.00 86 1008.3
20190120231032 6 234 2.0 4.0 0.00 0.15 0.00 86 1008.3
20190120230532 6 235 4.0 5.0 0.00 0.15 0.00 86 1008.3
20190120230033 6 240 2.0 8.0 0.00 0.16 0.00 86 1008.3
20190120225532 6 270 7.0 7.0 0.00 0.16 0.00 86 1008.3
20190120225032 6 230 2.0 7.0 0.00 0.16 0.00 86 1008.3
20190120224532 6 12 1.0 6.0 0.00 0.16 0.00 86 1008.3
20190120224032 6 237 1.0 6.0 0.00 0.16 0.00 86 1008.2
20190120223532 6 238 2.0 7.0 0.00 0.16 0.00 86 1008.2
20190120223032 6 236 4.0 11.0 0.00 0.16 0.00 86 1008.2
20190120222532 6 241 2.0 9.0 0.00 0.16 0.00 86 1008.2
20190120222032 6 247 4.0 9.0 0.00 0.16 0.00 85 1008.1
20190120221532 6 228 3.0 9.0 0.00 0.16 0.00 86 1008.1
20190120221032 6 248 4.0 8.0 0.00 0.16 0.00 85 1008.0
20190120220532 6 222 1.0 7.0 0.00 0.16 0.00 85 1007.9
20190120220032 6 217 4.0 7.0 0.00 0.16 0.00 85 1007.9
20190120215532 6 230 6.0 8.0 0.00 0.16 0.00 85 1007.8
20190120215032 6 256 8.0 10.0 0.00 0.16 0.00 85 1007.9
20190120214532 6 265 7.0 10.0 0.00 0.16 0.00 85 1007.8
20190120214032 6 233 6.0 9.0 0.00 0.16 0.00 85 1007.8
20190120213532 6 226 5.0 8.0 0.00 0.16 0.00 86 1007.8
20190120213032 6 262 4.0 10.0 0.00 0.16 0.00 85 1007.7
20190120212532 6 241 5.0 9.0 0.00 0.16 0.00 85 1007.7
20190120212032 6 226 4.0 10.0 0.00 0.16 0.00 85 1007.5
20190120211532 7 215 3.0 8.0 0.00 0.16 0.00 86 1007.7
20190120211032 7 258 6.0 8.0 0.00 0.16 0.00 86 1007.5
20190120210532 7 274 7.0 10.0 0.00 0.16 0.00 86 1007.6
20190120210032 7 211 5.0 10.0 0.00 0.16 0.00 86 1007.7
20190120205532 7 231 4.0 8.0 0.00 0.16 0.00 86 1007.6
20190120205032 7 238 3.0 9.0 0.00 0.16 0.00 86 1007.6
20190120204532 7 242 4.0 11.0 0.00 0.16 0.00 86 1007.5
20190120204032 7 274 6.0 8.0 0.00 0.16 0.00 86 1007.5
20190120203532 7 278 6.0 9.0 0.00 0.16 0.00 86 1007.4
20190120203032 7 233 4.0 7.0 0.00 0.16 0.00 85 1007.3
20190120202532 7 220 5.0 9.0 0.00 0.16 0.00 86 1007.3
20190120202032 7 280 4.0 9.0 0.00 0.16 0.00 86 1007.2
20190120201532 7 272 3.0 8.0 0.00 0.16 0.00 86 1007.1
20190120201033 7 216 1.0 9.0 0.00 0.16 0.00 86 1007.1
20190120200533 7 253 7.0 8.0 0.00 0.16 0.00 86 1007.1
20190120200032 7 262 3.0 7.0 0.00 0.16 0.00 86 1007.0
20190120195532 7 263 2.0 6.0 0.00 0.16 0.00 86 1006.9
20190120195032 7 200 4.0 9.0 0.00 0.16 0.00 86 1006.9
20190120194532 7 246 4.0 7.0 0.00 0.16 0.00 86 1006.8
20190120194032 7 224 3.0 7.0 0.00 0.16 0.00 86 1006.9
20190120193532 7 228 2.0 6.0 0.00 0.16 0.00 86 1006.7
20190120193032 7 8 1.0 6.0 0.00 0.16 0.00 86 1006.7
20190120192532 8 241 2.0 9.0 0.00 0.16 0.00 86 1006.6
20190120192032 8 248 5.0 9.0 0.00 0.16 0.00 86 1006.6
20190120191532 8 232 6.0 9.0 0.00 0.16 0.00 86 1006.6
20190120191032 8 239 4.0 7.0 0.00 0.16 0.00 86 1006.7
20190120190532 8 209 2.0 4.0 0.00 0.16 0.00 86 1006.5
20190120190032 8 209 4.0 7.0 0.00 0.16 0.00 86 1006.5
20190120185532 8 274 3.0 8.0 0.00 0.16 0.00 86 1006.4
20190120185032 8 208 4.0 12.0 0.00 0.16 0.00 86 1006.5
20190120184532 8 255 4.0 10.0 0.00 0.16 0.00 86 1006.5
20190120184032 8 251 3.0 9.0 0.00 0.16 0.00 86 1006.4
20190120183532 8 271 4.0 7.0 0.00 0.16 0.00 86 1006.3
20190120183032 8 261 6.0 9.0 0.00 0.16 0.00 86 1006.3
20190120182532 8 251 4.0 8.0 0.00 0.16 0.00 86 1006.3
20190120182032 8 274 7.0 8.0 0.00 0.16 0.00 86 1006.3
20190120181532 8 235 2.0 7.0 0.00 0.16 0.00 86 1006.3
20190120181032 8 207 5.0 8.0 0.00 0.16 0.00 86 1006.2
20190120180532 8 248 3.0 9.0 0.00 0.16 0.00 86 1006.1
20190120180032 8 213 1.0 6.0 0.00 0.16 0.00 86 1006.1
20190120175532 8 216 5.0 10.0 0.00 0.16 0.00 86 1006.0
20190120175032 8 229 6.0 9.0 0.00 0.16 0.00 86 1006.0
20190120174532 8 205 4.0 9.0 0.00 0.16 0.00 86 1005.9
20190120174032 8 245 2.0 8.0 0.00 0.16 0.00 86 1005.9
20190120173532 8 241 8.0 8.0 0.00 0.16 0.00 86 1005.9